This demonstration page uses our WeatherBlox Daily Observations layout. Learn more.

Left ArrowRight Arrow

Hourly Observations for July 2, 2022

Temp ( °F °C ) Dew Point ( °F °C ) Humidity (%) Winds ( mph kmh ) Pressure ( in mb ) Visibility ( mi km ) Precip ( " mm )
12:59 am 00:59 Partly Cloudy 77 25 72 22.2 85 85 SSW 9 15 30.05 1018 10 16 0.00 0.00
1:59 am 01:59 Partly Cloudy 76 24.4 72 22.2 88 88 SSW 9 15 30.05 1018 10 16 0.00 0.00
2:59 am 02:59 Partly Cloudy 76 24.4 71 21.7 85 85 SW 9 15 30.05 1018 10 16 0.00 0.00
3:59 am 03:59 Partly Cloudy 75 23.9 71 21.7 88 88 SW 8 13 30.05 1018 10 16 0.00 0.00
4:59 am 04:59 Partly Cloudy 75 23.9 71 21.7 88 88 SSW 7 11 30.05 1018 10 16 0.00 0.00
5:59 am 05:59 Partly Cloudy 74 23.3 71 21.7 91 91 SSW 9 15 30.05 1018 10 16 0.00 0.00
6:59 am 06:59 Mostly Cloudy 73 22.8 71 21.7 94 94 SSW 8 13 30.06 1018 10 16 0.00 0.00
7:59 am 07:59 Partly Cloudy 75 23.9 71 21.7 88 88 SSW 7 11 30.05 1018 10 16 0.00 0.00
8:59 am 08:59 Mostly Cloudy 79 26.1 71 21.7 77 77 SW 9 15 30.06 1018 10 16 0.00 0.00
9:51 am 09:51 Partly Cloudy 79 26.1 71 21.7 77 77 SW 8 13 30.05 1018 10 16 0.00 0.00
9:59 am 09:59 Partly Cloudy 81 27.2 71 21.7 72 72 SW 12 19 30.05 1018 10 16 0.00 0.00
10:59 am 10:59 Partly Cloudy 86 30 69 20.6 57 57 WSW 12 19 30.04 1017 10 16 0.00 0.00
11:59 am 11:59 Partly Cloudy 88 31.1 68 20 52 52 SW 10 17 30.03 1017 10 16 0.00 0.00
12:59 pm 12:59 Partly Cloudy 90 32.2 67 19.4 47 47 SSW 10 17 30.02 1017 10 16 0.00 0.00
1:59 pm 13:59 Partly Cloudy 91 32.8 67 19.4 45 45 SSW 9 15 30.01 1016 10 16 0.00 0.00
2:59 pm 14:59 Partly Cloudy 91 32.8 67 19.4 45 45 SSW 12 19 30.00 1016 10 16 0.00 0.00
3:59 pm 15:59 Partly Cloudy 90 32.2 68 20 48 48 SW 14 22 29.99 1016 10 16 0.00 0.00
4:59 pm 16:59 Mostly Cloudy 90 32.2 69 20.6 50 50 SSW 13 20 29.98 1015 10 16 0.00 0.00
5:59 pm 17:59 Mostly Cloudy 86 30 73 22.8 65 65 SSW 13 20 29.97 1015 10 16 0.00 0.00
6:59 pm 18:59 Mostly Cloudy 87 30.6 73 22.8 63 63 S 16 26 29.98 1015 10 16 0.00 0.00
7:59 pm 19:59 Mostly Cloudy 83 28.3 72 22.2 70 70 SSW 13 20 30.00 1016 10 16 0.00 0.00
8:59 pm 20:59 Partly Cloudy 81 27.2 72 22.2 74 74 SSW 9 15 30.01 1016 10 16 0.00 0.00
9:59 pm 21:59 Mostly Clear 80 26.7 76 24.4 87 87 SSW 9 15 30.02 1017 10 16 0.00 0.00
10:59 pm 22:59 Mostly Clear 80 26.7 76 24.4 87 87 SSW 8 13 30.02 1017 9 14 0.00 0.00
11:59 pm 23:59 Mostly Clear 78 25.6 74 23.3 87 87 S 10 17 30.01 1016 10 16 0.00 0.00

Powered by AerisWeather